15min,AgWx,beryljct,423,13NOV2018:00:00:00,21.3,12.86,19.0,17.0,19.2,24.3,15.5,58,65,50,0.206,6.6,9.0,5.3,3.683,3.5,319,41,5.0,0.00001,0.00002,35.2,38.7,22,0,0,35.4,8.35,0.00,0.00
15min,AgWx,beryljct,423,13NOV2018:00:15:00,20.6,12.86,20.8,22.7,19.5,22.7,17.0,58,62,52,0.218,7.0,8.1,5.8,0,3.1,312,3.6,4.6,-0.00001,0.00000,35.1,38.7,22,0,0,35.8,8.36,0.00,0.00
15min,AgWx,beryljct,423,13NOV2018:00:30:00,20.3,12.85,22.9,21.5,22.4,23.3,21.5,53,54,51,0.210,7.7,8.2,7.0,0.789,2.0,43,20,3.0,-0.00005,-0.00005,35.1,38.6,22,0,0,35.5,8.36,0.00,0.00
15min,AgWx,beryljct,423,13NOV2018:00:45:00,20.3,12.85,22.0,21.7,21.4,21.9,20.8,54,55,53,0.213,7.4,7.7,7.0,1.293,2.0,308,32,3.4,-0.00005,-0.00005,35.1,38.6,22,0,0,35.5,8.36,0.00,0.00
15min,AgWx,beryljct,423,13NOV2018:01:00:00,20.1,12.69,22.1,21.8,21.5,22.2,20.9,54,55,52,0.218,7.5,8.0,7.0,2.565,1.0,316,8.3,3.0,-0.00011,-0.00015,35.1,38.6,22,0,0,35.7,8.36,0.00,0.00
15min,AgWx,beryljct,423,13NOV2018:01:15:00,20.2,12.82,23.0,22.0,22.4,23.5,21.4,53,55,51,0.213,7.7,8.5,7.1,2.039,1.4,351,19,4.8,-0.00008,-0.00010,35.0,38.6,22,0,0,35.5,8.36,0.00,0.00
15min,AgWx,beryljct,423,13NOV2018:01:30:00,20.3,12.8,23.1,21.6,22.5,23.3,21.4,52,54,51,0.215,7.6,8.1,7.0,2.981,2.5,319,16,3.3,-0.00002,-0.00001,35.0,38.6,22,0,0,35.6,8.36,0.00,0.00
15min,AgWx,beryljct,423,13NOV2018:01:45:00,20.1,12.81,21.7,22.0,21.1,22.4,19.3,56,60,53,0.219,7.7,8.4,6.1,3.595,1.7,12,38,3.6,-0.00006,-0.00007,34.9,38.6,22,0,0,35.7,8.36,0.00,0.00
15min,AgWx,beryljct,423,13NOV2018:02:00:00,19.9,12.79,18.7,16.1,18.8,22.0,16.1,59,65,54,0.204,6.8,7.9,5.8,3.508,3.9,332,19,5.3,0.00001,0.00003,34.9,38.6,22,0,0,35.6,8.36,0.00,0.00
15min,AgWx,beryljct,423,13NOV2018:02:15:00,19.5,12.78,18.6,18.8,17.7,18.8,16.1,64,66,63,0.223,7.7,8.4,6.4,4.384,4.5,308,4.0,5.5,0.00001,0.00003,34.9,38.5,22,0,0,35.5,8.36,0.00,0.00
15min,AgWx,beryljct,423,13NOV2018:02:30:00,19.4,12.76,20.0,18.7,19.3,19.9,18.7,61,63,59,0.212,8.0,8.6,7.3,2.477,4.2,318,10,6.9,0.00002,0.00003,34.8,38.5,22,0,0,35.7,8.36,0.00,0.00
15min,AgWx,beryljct,423,13NOV2018:02:45:00,19.2,12.62,19.8,20.0,19.0,20.1,18.0,60,63,58,0.215,7.5,8.2,6.5,4.428,3.9,321,9.4,6.0,0.00001,0.00002,34.8,38.5,22,0,0,35.6,8.36,0.00,0.00
15min,AgWx,beryljct,423,13NOV2018:03:00:00,19.2,12.72,19.2,17.5,18.8,20.2,17.5,61,63,58,0.211,7.4,8.1,7.0,5.459,4.5,324,8.2,5.5,0.00002,0.00004,34.8,38.5,22,0,0,35.4,8.36,0.00,0.00
15min,AgWx,beryljct,423,13NOV2018:03:15:00,18.9,12.72,17.9,17.2,17.4,18.0,17.0,63,64,62,0.210,7.0,7.4,6.7,5.174,5.3,311,5.9,6.1,0.00003,0.00005,34.7,38.5,22,0,0,35.8,8.36,0.00,0.00
15min,AgWx,beryljct,423,13NOV2018:03:30:00,18.5,12.72,17.2,16.5,16.7,17.2,16.4,65,65,64,0.206,6.9,7.0,6.6,5.48,5.4,312,3.8,6.1,0.00003,0.00004,34.7,38.5,22,0,0,35.7,8.36,0.00,0.00
15min,AgWx,beryljct,423,13NOV2018:03:45:00,18.3,12.7,17.6,16.5,17.0,17.4,16.4,65,66,64,0.208,7.2,7.7,6.6,3.946,4.9,328,11,6.6,0.00002,0.00003,34.7,38.4,22,0,0,35.5,8.36,0.00,0.00
15min,AgWx,beryljct,423,13NOV2018:04:00:00,18.1,12.7,17.0,16.5,16.4,17.1,15.8,66,67,65,0.210,7.1,7.6,6.6,4.626,5.0,331,11,6.6,0.00002,0.00003,34.7,38.4,22,0,0,35.6,8.36,0.00,0.00
15min,AgWx,beryljct,423,13NOV2018:04:15:00,17.9,12.68,16.9,16.0,16.4,16.8,15.8,65,67,64,0.204,6.8,7.4,6.0,3.727,5.2,331,9.6,6.6,0.00002,0.00003,34.6,38.4,22,0,0,35.5,8.36,0.00,0.00
15min,AgWx,beryljct,423,13NOV2018:04:30:00,17.7,12.52,17.1,17.3,16.4,17.3,15.4,65,68,64,0.214,6.8,7.5,5.9,4.801,5.0,327,6.0,6.2,0.00002,0.00003,34.6,38.4,22,0,0,35.6,8.37,0.00,0.00
15min,AgWx,beryljct,423,13NOV2018:04:45:00,17.8,12.49,18.6,20.1,17.6,20.1,16.8,64,66,60,0.223,7.7,8.5,7.0,7.234,5.9,309,13,9.8,0.00004,0.00005,34.6,38.4,22,0,0,35.8,8.37,0.00,0.00
15min,AgWx,beryljct,423,13NOV2018:05:00:00,18.4,12.64,20.3,18.3,19.8,20.7,18.3,60,63,58,0.216,8.1,8.4,7.6,3.442,5.3,332,16,7.8,0.00004,0.00006,34.5,38.3,22,0,0,35.7,8.36,0.00,0.00
15min,AgWx,beryljct,423,13NOV2018:05:15:00,18.7,12.63,19.8,18.7,19.2,20.1,18.3,61,63,58,0.211,7.7,8.3,7.2,5.13,4.8,336,20,8.5,0.00003,0.00005,34.5,38.3,22,0,0,35.6,8.36,0.00,0.00
15min,AgWx,beryljct,423,13NOV2018:05:30:00,18.8,12.63,18.7,18.2,18.1,18.8,17.6,63,65,60,0.222,7.5,8.3,6.7,4.801,4.6,16,21,6.7,0.00002,0.00003,34.5,38.3,22,0,0,35.8,8.37,0.00,0.00
15min,AgWx,beryljct,423,13NOV2018:05:45:00,18.7,12.63,19.2,18.7,18.5,18.7,18.2,64,65,63,0.222,8.3,8.4,8.1,3.442,4.0,28,15,6.6,0.00001,0.00002,34.5,38.3,22,0,0,35.6,8.36,0.00,0.00
15min,AgWx,beryljct,423,13NOV2018:06:00:00,18.4,12.63,18.3,18.3,17.7,18.6,17.1,64,65,62,0.215,7.5,8.1,7.1,6.094,4.4,307,14,6.7,0.00001,0.00002,34.4,38.3,22,0,0,35.5,8.37,0.00,0.00
15min,AgWx,beryljct,423,13NOV2018:06:15:00,18.2,12.49,17.5,16.3,17.1,18.3,16.3,65,66,62,0.208,7.2,7.7,6.8,4.647,5.2,325,9.3,6.6,0.00002,0.00004,34.4,38.2,22,0,0,35.7,8.37,0.00,0.00
15min,AgWx,beryljct,423,13NOV2018:06:30:00,17.7,12.48,16.1,15.4,15.6,16.3,15.0,67,68,66,0.207,6.6,6.9,6.2,1.907,4.0,316,6.3,5.7,0.00013,0.00022,34.4,38.2,22,0,0,35.7,8.36,0.00,0.00
15min,AgWx,beryljct,423,13NOV2018:06:45:00,16.9,12.61,18.2,18.7,17.1,18.7,14.9,64,69,60,0.212,7.0,7.6,6.0,1.798,1.6,331,19,3.1,0.00007,0.00012,34.3,38.2,22,0,0,35.7,8.37,0.00,0.00
15min,AgWx,beryljct,423,13NOV2018:07:00:00,16.6,12.62,19.5,19.0,18.8,19.1,18.4,60,60,59,0.212,7.1,7.4,6.7,0.899,0.7,326,3.2,1.9,0.00004,0.00007,34.3,38.2,22,1,0,35.5,8.37,0.00,0.00
15min,AgWx,beryljct,423,13NOV2018:07:15:00,16.4,12.61,18.6,18.7,18.0,19.0,16.9,61,64,59,0.216,7.0,7.8,6.2,2.455,1.5,341,21,3.0,0.00008,0.00013,34.3,38.2,22,4,0,35.6,8.37,0.00,0.00
15min,AgWx,beryljct,423,13NOV2018:07:30:00,16.7,12.79,19.9,19.0,19.2,19.5,18.8,62,63,60,0.224,8.2,8.5,7.7,1.184,2.8,35,7.6,5.0,0.00020,0.00030,34.3,38.1,22,26,0,35.8,8.36,0.00,0.00
15min,AgWx,beryljct,423,13NOV2018:07:45:00,17.5,13.08,19.5,18.4,19.1,19.4,18.4,64,66,62,0.227,8.7,9.1,8.3,2.389,2.8,124,43,4.6,0.00028,0.00037,34.2,38.1,22,68,0,35.7,8.37,0.00,0.00
15min,AgWx,beryljct,423,13NOV2018:08:00:00,18.8,13.4,18.6,17.9,18.1,18.4,17.7,66,67,65,0.223,8.7,9.2,8.0,3.42,3.8,170,7.7,5.2,0.00035,0.00046,34.2,38.1,22,105,0,35.7,8.36,0.00,0.00
15min,AgWx,beryljct,423,13NOV2018:08:15:00,20.1,14.14,18.8,18.6,18.2,18.6,17.9,67,68,65,0.234,8.9,9.5,8.3,0.877,3.3,132,15,5.5,0.00041,0.00052,34.1,38.1,22,144,0,35.7,8.36,0.00,0.00
15min,AgWx,beryljct,423,13NOV2018:08:30:00,21.7,14.95,20.8,22.0,20.0,22.0,18.5,65,67,60,0.241,10.0,11.2,9.3,3.968,2.3,34,55,5.7,0.00052,0.00062,34.1,38.1,22,182,0,35.5,8.36,0.00,0.00
15min,AgWx,beryljct,423,13NOV2018:08:45:00,24.0,14.87,23.9,24.2,23.2,24.2,22.0,57,61,54,0.240,10.2,10.7,9.6,2.543,4.1,356,8.7,5.5,0.00072,0.00091,34.1,38.0,22,222,0,35.7,8.36,0.00,0.00
15min,AgWx,beryljct,423,13NOV2018:09:00:00,26.3,14.83,25.6,25.7,25.0,25.7,24.3,53,55,52,0.250,10.3,10.9,9.9,3.836,4.2,4.2,16,6.0,0.00088,0.00110,34.1,38.0,22,262,0,36.5,8.36,0.00,0.00
15min,AgWx,beryljct,423,13NOV2018:09:15:00,28.6,14.78,27.0,27.8,26.4,27.8,25.5,51,53,49,0.251,10.8,11.6,10.2,6.445,4.1,13,17,6.9,0.00103,0.00127,34.0,38.0,22,302,0,38.7,8.36,0.00,0.00
15min,AgWx,beryljct,423,13NOV2018:09:30:00,30.8,14.78,29.1,29.1,28.5,29.1,27.9,48,50,47,0.259,11.5,12.3,10.9,4.406,6.8,63,12,9.3,0.00125,0.00163,34.0,38.0,22,344,0,40.3,8.36,0.00,0.00
15min,AgWx,beryljct,423,13NOV2018:09:45:00,32.6,14.72,30.6,30.7,30.0,31.1,29.1,46,48,44,0.254,11.8,13.1,11.3,5.283,6.1,73,14,8.9,0.00141,0.00179,34.0,37.9,22,383,0,42.4,8.36,0.00,0.00
15min,AgWx,beryljct,423,13NOV2018:10:00:00,34.2,14.71,32.1,32.4,31.6,32.4,30.8,43,45,41,0.257,11.6,12.8,10.8,6.292,6.5,74,15,8.8,0.00155,0.00199,34.0,37.9,22,394,0,43.6,8.36,0.00,0.00
15min,AgWx,beryljct,423,13NOV2018:10:15:00,35.6,14.68,33.1,32.7,32.6,33.3,32.2,40,42,38,0.242,11.0,12.1,10.0,1.447,4.8,56,21,8.2,0.00172,0.00213,34.0,37.9,22,445,0,46.2,8.36,0.00,0.00
15min,AgWx,beryljct,423,13NOV2018:10:30:00,37.3,14.64,33.7,33.9,33.3,34.0,32.7,37,39,35,0.241,10.0,10.9,8.9,4.231,3.6,47,30,8.9,0.00185,0.00221,34.0,37.9,22,480,0,50.0,8.35,0.00,0.00
15min,AgWx,beryljct,423,13NOV2018:10:45:00,38.7,14.61,35.1,35.5,34.6,35.5,33.7,33,37,31,0.232,8.6,10.3,7.2,6.818,5.6,70,15,10.0,0.00201,0.00252,33.9,37.9,22,490,0,48.6,8.35,0.00,0.00
15min,AgWx,beryljct,423,13NOV2018:11:00:00,39.8,14.71,36.3,36.2,35.9,36.7,35.2,32,34,29,0.230,9.1,10.9,6.8,6.555,5.1,68,29,8.8,0.00216,0.00267,33.9,37.8,22,521,0,50.1,8.35,0.00,0.00
15min,AgWx,beryljct,423,13NOV2018:11:15:00,40.8,14.19,37.1,36.9,36.7,37.7,35.8,30,33,27,0.221,8.1,9.5,5.9,5.48,5.1,83,18,8.4,0.00229,0.00284,33.9,37.8,22,545,0,51.3,8.35,0.00,0.00
15min,AgWx,beryljct,423,13NOV2018:11:30:00,41.5,14.27,37.8,37.5,37.4,38.0,36.9,29,31,27,0.221,7.8,9.2,6.5,4.735,6.2,75,17,10.2,0.00240,0.00303,33.9,37.8,22,560,0,50.3,8.35,0.00,0.00
15min,AgWx,beryljct,423,13NOV2018:11:45:00,42.2,14.18,38.4,38.3,38.1,38.7,37.6,29,30,28,0.222,8.5,9.5,7.3,4.976,6.1,63,21,9.9,0.00246,0.00309,33.9,37.8,22,571,0,50.9,8.35,0.00,0.00
15min,AgWx,beryljct,423,13NOV2018:12:00:00,42.7,14.17,39.2,38.8,38.8,39.5,38.3,28,29,26,0.230,8.3,9.4,7.1,7.015,8.6,43,18,15.4,0.00258,0.00337,34.0,37.8,22,578,0,49.1,8.34,0.00,0.00
15min,AgWx,beryljct,423,13NOV2018:12:15:00,43.2,14.15,40.0,40.1,39.6,40.5,38.9,28,29,27,0.236,9.2,10.7,7.9,11.77,7.8,32,21,12.0,0.00260,0.00336,33.9,37.7,22,579,0,49.4,8.34,0.00,0.00
15min,AgWx,beryljct,423,13NOV2018:12:30:00,43.7,14.15,40.6,41.0,40.3,41.0,39.6,27,28,26,0.239,9.3,10.3,8.4,6.094,8.0,20,14,11.7,0.00266,0.00346,34.0,37.7,22,581,0,49.3,8.34,0.00,0.00
15min,AgWx,beryljct,423,13NOV2018:12:45:00,44.4,14.11,41.4,41.2,41.1,41.6,40.7,25,27,24,0.222,8.1,9.9,6.8,7.103,8.2,24,20,13.0,0.00272,0.00357,34.0,37.7,22,578,0,49.6,8.34,0.00,0.00
15min,AgWx,beryljct,423,13NOV2018:13:00:00,45.1,14.07,42.0,42.3,41.7,42.4,41.2,24,26,23,0.217,7.7,9.4,6.4,8.59,8.2,39,17,12.3,0.00274,0.00361,34.0,37.7,22,570,0,49.9,8.34,0.00,0.00
15min,AgWx,beryljct,423,13NOV2018:13:15:00,45.8,14.08,42.5,43.1,42.1,43.2,41.4,24,25,23,0.227,7.9,9.5,6.7,5.722,6.7,28,13,10.7,0.00268,0.00346,34.0,37.7,22,562,0,50.1,8.33,0.00,0.00
15min,AgWx,beryljct,423,13NOV2018:13:30:00,46.6,14.05,42.9,42.5,42.7,43.1,42.3,23,25,23,0.215,7.9,9.7,7.0,5.196,6.5,31,20,10.4,0.00258,0.00335,34.0,37.7,22,530,0,50.3,8.33,0.00,0.00
15min,AgWx,beryljct,423,13NOV2018:13:45:00,47.2,14.03,43.5,43.5,43.2,44.0,42.4,23,24,23,0.224,8.3,9.7,7.3,5.371,6.2,21,17,9.1,0.00256,0.00331,34.0,37.7,22,523,0,49.9,8.33,0.00,0.00
15min,AgWx,beryljct,423,13NOV2018:14:00:00,47.9,14.09,44.1,44.2,43.8,44.2,43.3,24,25,23,0.242,9.2,10.5,8.2,7.782,6.3,32,24,10.0,0.00248,0.00324,34.0,37.6,22,496,0,50.2,8.33,0.00,0.00
15min,AgWx,beryljct,423,13NOV2018:14:15:00,48.5,13.99,44.6,44.9,44.3,45.0,43.6,24,25,23,0.240,9.6,11.0,8.3,8.15,7.1,30,16,10.3,0.00246,0.00329,34.1,37.6,22,477,0,49.4,8.33,0.00,0.00
15min,AgWx,beryljct,423,13NOV2018:14:30:00,49.1,13.99,45.2,44.7,45.0,45.5,44.3,24,25,23,0.233,10.0,11.5,8.6,7.19,8.1,40,14,11.7,0.00246,0.00336,34.2,37.6,22,453,0,49.7,8.33,0.00,0.00
15min,AgWx,beryljct,423,13NOV2018:14:45:00,49.4,13.97,45.2,45.7,44.9,45.8,44.5,24,25,23,0.251,10.1,12.1,9.0,7.234,6.0,54,20,9.9,0.00209,0.00283,34.4,37.6,22,400,0,49.4,8.33,0.00,0.00
15min,AgWx,beryljct,423,13NOV2018:15:00:00,49.7,13.95,45.6,45.3,45.4,45.7,45.0,24,25,23,0.233,10.5,11.7,9.3,6.423,6.5,53,17,10.9,0.00195,0.00272,34.7,37.6,22,354,0,49.8,8.33,0.00,0.00
15min,AgWx,beryljct,423,13NOV2018:15:15:00,50.1,13.97,46.0,45.9,45.7,46.2,45.2,24,26,23,0.261,10.8,13.1,9.2,6.949,6.1,53,18,9.9,0.00193,0.00268,35.1,37.6,22,355,0,50.5,8.33,0.00,0.00
15min,AgWx,beryljct,423,13NOV2018:15:30:00,50.0,13.96,45.6,45.1,45.4,46.4,45.0,24,25,23,0.255,11.1,12.7,10.1,7.453,7.3,70,14,10.3,0.00156,0.00236,35.5,37.6,22,250,0,48.7,8.33,0.00,0.00
15min,AgWx,beryljct,423,13NOV2018:15:45:00,49.4,13.95,45.5,45.4,45.2,45.5,45.1,24,25,23,0.253,11.0,12.0,9.9,5.678,6.7,72,10,10.2,0.00155,0.00231,35.8,37.6,22,263,0,48.8,8.33,0.00,0.00
15min,AgWx,beryljct,423,13NOV2018:16:00:00,49.2,13.97,45.6,45.2,45.3,45.6,45.2,24,26,23,0.250,11.1,12.7,10.0,9.03,7.5,66,14,10.8,0.00154,0.00234,36.1,37.6,22,242,0,49.0,8.33,0.00,0.00
15min,AgWx,beryljct,423,13NOV2018:16:15:00,48.7,13.98,45.1,44.7,44.8,45.2,44.6,25,26,24,0.251,11.0,11.9,10.1,5.327,7.0,77,11,10.2,0.00121,0.00196,36.4,37.7,22,176,0,47.3,8.33,0.00,0.00
15min,AgWx,beryljct,423,13NOV2018:16:30:00,48.1,14.02,44.7,44.2,44.5,44.8,44.2,25,27,24,0.246,11.2,13.0,9.8,7.19,6.5,63,9.8,9.6,0.00057,0.00071,36.6,37.7,22,141,0,47.1,8.33,0.00,0.00
15min,AgWx,beryljct,423,13NOV2018:16:45:00,47.1,14.06,43.6,42.9,43.4,44.1,42.9,26,27,25,0.254,11.0,11.5,10.5,5.064,6.1,62,5.7,9.6,0.00048,0.00061,36.8,37.8,22,101,0,44.7,8.33,0.00,0.00
15min,AgWx,beryljct,423,13NOV2018:17:00:00,45.8,14.07,42.4,41.8,42.2,42.9,41.7,28,29,26,0.255,11.2,11.7,10.6,3.223,4.2,67,4.9,6.1,0.00032,0.00044,37.0,37.8,22,77,0,42.5,8.33,0.00,0.00
15min,AgWx,beryljct,423,13NOV2018:17:15:00,44.1,13.36,41.8,41.3,41.5,41.8,41.0,28,29,27,0.245,10.9,11.6,10.3,4.713,3.0,67,3.4,4.8,0.00015,0.00023,37.1,37.9,22,31,0,40.0,8.33,0.00,0.00
15min,AgWx,beryljct,423,13NOV2018:17:30:00,42.1,13.25,40.4,39.9,40.2,41.2,39.5,29,30,28,0.241,10.4,10.7,9.9,1.491,3.0,48,14,4.4,0.00010,0.00017,37.2,37.9,22,9,0,38.0,8.33,0.00,0.00
15min,AgWx,beryljct,423,13NOV2018:17:45:00,40.2,13.21,39.0,37.6,38.9,39.9,37.5,30,32,29,0.242,10.1,10.3,9.8,3.683,2.9,344,25,4.9,0.00006,0.00012,37.3,38.0,22,1,0,36.2,8.34,0.00,0.00
15min,AgWx,beryljct,423,13NOV2018:18:00:00,38.3,13.18,36.8,37.0,36.4,37.6,35.7,34,36,32,0.242,10.8,11.5,10.1,3.442,3.4,37,3.8,4.4,0.00009,0.00014,37.3,38.1,22,0,0,35.5,8.34,0.00,0.00
15min,AgWx,beryljct,423,13NOV2018:18:15:00,36.7,13.15,37.5,36.4,37.0,38.1,35.6,33,36,31,0.248,10.5,11.1,10.1,0.658,2.1,44,4.7,3.9,-0.00001,0.00002,37.3,38.1,22,0,0,35.6,8.34,0.00,0.00
15min,AgWx,beryljct,423,13NOV2018:18:30:00,35.4,13.15,37.6,36.3,37.1,37.7,36.3,33,34,32,0.248,10.9,11.2,10.6,0,1.1,69,16,3.4,-0.00013,-0.00017,37.3,38.2,22,0,0,35.5,8.34,0.00,0.00
15min,AgWx,beryljct,423,13NOV2018:18:45:00,34.4,12.99,36.7,35.7,36.3,37.0,35.6,34,35,33,0.246,10.6,10.8,10.4,1.491,1.1,118,20,3.0,-0.00013,-0.00016,37.2,38.3,22,0,0,35.5,8.34,0.00,0.00
15min,AgWx,beryljct,423,13NOV2018:19:00:00,33.9,13.11,35.4,34.3,35.1,35.8,34.3,36,38,35,0.257,11.0,11.6,10.5,6.094,3.4,85,20,7.3,0.00008,0.00012,37.1,38.3,22,0,0,35.6,8.34,0.00,0.00
15min,AgWx,beryljct,423,13NOV2018:19:15:00,33.9,13.11,34.9,34.4,34.4,34.7,34.2,38,39,37,0.258,11.6,11.8,11.3,8.13,7.8,68,5.8,10.7,0.00025,0.00031,37.0,38.4,22,0,0,35.9,8.34,0.00,0.00
15min,AgWx,beryljct,423,13NOV2018:19:30:00,34.0,13.09,34.6,33.9,34.2,34.5,33.8,39,40,38,0.262,11.8,12.1,11.6,5.48,7.8,71,6.5,10.2,0.00024,0.00030,36.9,38.4,22,0,0,35.3,8.34,0.00,0.00
15min,AgWx,beryljct,423,13NOV2018:19:45:00,33.7,13.07,33.2,32.2,32.9,33.8,32.2,41,43,40,0.262,12.0,12.2,11.9,5.765,6.2,68,4.5,8.1,0.00018,0.00023,36.8,38.4,22,0,0,35.3,8.34,0.00,0.00
15min,AgWx,beryljct,423,13NOV2018:20:00:00,33.2,13.06,32.6,32.0,32.1,32.3,31.9,42,43,42,0.256,11.7,12.0,11.3,6.292,6.3,64,6.2,8.0,0.00017,0.00023,36.6,38.5,22,0,0,35.3,8.34,0.00,0.00
15min,AgWx,beryljct,423,13NOV2018:20:15:00,32.8,13.05,32.2,31.6,31.8,32.0,31.5,42,43,41,0.255,11.3,11.5,11.2,7.914,7.1,62,5.1,8.3,0.00019,0.00024,36.5,38.5,22,0,0,35.5,8.34,0.00,0.00
15min,AgWx,beryljct,423,13NOV2018:20:30:00,32.3,13.04,31.6,30.9,31.2,31.6,30.9,43,44,42,0.255,11.3,11.5,11.1,3.003,5.5,63,5.3,7.7,0.00014,0.00019,36.4,38.5,22,0,0,35.6,8.34,0.00,0.00
15min,AgWx,beryljct,423,13NOV2018:20:45:00,31.4,12.89,30.8,30.4,30.4,30.9,30.0,43,45,42,0.242,10.7,11.6,10.1,2.938,1.1,42,25,3.6,-0.00012,-0.00016,36.4,38.5,22,0,0,35.7,8.35,0.00,0.00
15min,AgWx,beryljct,423,13NOV2018:21:00:00,30.5,13.02,28.7,26.1,28.7,30.5,26.0,45,51,42,0.243,10.0,10.3,9.3,4.516,4.0,329,14,5.1,0.00007,0.00011,36.3,38.5,22,0,0,35.4,8.35,0.00,0.00
15min,AgWx,beryljct,423,13NOV2018:21:15:00,29.3,13.01,27.3,28.9,26.5,28.9,25.1,50,53,44,0.239,10.2,10.6,9.8,2.784,3.7,307,6.6,5.4,0.00004,0.00007,36.2,38.5,22,0,0,35.7,8.35,0.00,0.00
15min,AgWx,beryljct,423,13NOV2018:21:30:00,28.7,12.98,29.2,27.5,28.7,29.7,27.5,45,47,43,0.240,10.0,10.4,9.6,2.718,3.1,318,8.1,4.2,0.00002,0.00005,36.1,38.5,22,0,0,35.5,8.35,0.00,0.00
15min,AgWx,beryljct,423,13NOV2018:21:45:00,28.3,13,28.9,28.0,28.4,29.5,27.1,45,48,43,0.238,9.8,10.3,9.3,2.346,3.2,308,6.3,4.0,0.00003,0.00006,36.0,38.5,22,0,0,35.4,8.35,0.00,0.00
15min,AgWx,beryljct,423,13NOV2018:22:00:00,27.8,12.97,28.6,28.1,28.0,28.7,26.8,46,48,44,0.233,9.7,10.2,9.3,2.872,2.6,313,3.9,3.3,-0.00000,0.00002,35.9,38.5,22,0,0,35.6,8.35,0.00,0.00
15min,AgWx,beryljct,423,13NOV2018:22:15:00,27.6,12.97,28.0,28.1,27.5,28.2,26.7,46,48,45,0.242,9.6,10.3,9.2,3.88,3.4,308,15,4.5,0.00004,0.00006,35.9,38.5,22,0,0,35.6,8.35,0.00,0.00
15min,AgWx,beryljct,423,13NOV2018:22:30:00,27.3,12.96,28.6,29.5,27.9,29.7,25.9,47,51,44,0.245,10.1,11.0,9.2,4.823,4.6,301,7.5,5.7,0.00008,0.00012,35.8,38.5,22,0,0,35.7,8.35,0.00,0.00
15min,AgWx,beryljct,423,13NOV2018:22:45:00,27.4,12.96,29.5,27.9,29.1,29.9,27.9,44,46,43,0.235,9.9,10.4,9.4,3.902,4.1,323,16,5.3,0.00008,0.00011,35.7,38.5,22,0,0,35.6,8.35,0.00,0.00
15min,AgWx,beryljct,423,13NOV2018:23:00:00,27.4,12.81,29.2,27.7,28.7,30.5,27.2,44,47,41,0.240,9.7,10.2,8.9,3.727,4.2,334,6.5,5.8,0.00008,0.00011,35.7,38.5,22,0,0,35.7,8.35,0.00,0.00
15min,AgWx,beryljct,423,13NOV2018:23:15:00,26.8,12.94,23.6,23.1,23.6,27.6,22.4,55,60,47,0.248,9.8,10.8,9.4,0.965,2.1,315,10,3.7,-0.00005,-0.00005,35.6,38.5,22,0,0,35.7,8.35,0.00,0.00
15min,AgWx,beryljct,423,13NOV2018:23:30:00,25.9,12.92,25.6,27.6,24.5,27.9,22.8,54,58,46,0.235,10.3,10.8,9.5,3.398,2.4,295,6.0,4.4,-0.00003,-0.00002,35.6,38.5,22,0,0,35.6,8.35,0.00,0.00
15min,AgWx,bigpiney,439,13NOV2018:00:00:00,8.5,12.65,7.0,6.3,6.4,6.8,6.0,75,77,73,0.149,0.1,0.5,-0.4,1.754,3.4,240,5.1,5.0,-0.00002,-0.00002,34.0,37.3,37,0,0,0.0,.,0.00,0.00
15min,AgWx,bigpiney,439,13NOV2018:00:15:00,8.3,12.64,6.7,7.2,6.1,7.2,4.9,75,77,73,0.158,0.0,1.1,-1.3,1.118,1.6,276,22,2.7,-0.00006,-0.00008,34.0,37.3,37,0,0,0.0,.,0.00,0.00
15min,AgWx,bigpiney,439,13NOV2018:00:30:00,8.1,12.62,8.1,7.4,7.6,8.3,6.6,72,74,71,0.155,0.4,1.0,-0.3,2.039,2.3,249,22,4.1,-0.00004,-0.00005,34.0,37.2,37,0,0,0.0,.,0.00,0.00
15min,AgWx,bigpiney,439,13NOV2018:00:45:00,7.8,12.62,6.7,5.8,6.3,8.0,4.9,73,74,70,0.146,-0.6,0.6,-2.1,4.077,3.6,241,10,5.5,-0.00002,-0.00002,34.0,37.3,37,0,0,0.0,.,0.00,0.00
15min,AgWx,bigpiney,439,13NOV2018:01:00:00,7.5,12.61,8.3,6.6,7.5,9.7,5.4,71,75,67,0.153,0.1,1.5,-1.2,3.617,3.2,232,11,5.0,-0.00002,-0.00002,34.0,37.2,37,0,0,0.0,.,0.00,0.00
15min,AgWx,bigpiney,439,13NOV2018:01:15:00,7.2,12.6,7.5,5.6,7.2,9.5,4.7,71,74,66,0.145,-0.4,2.0,-3.0,4.406,3.7,243,8.8,4.8,-0.00001,-0.00001,34.0,37.3,37,0,0,0.0,.,0.00,0.00
15min,AgWx,bigpiney,439,13NOV2018:01:30:00,7.0,12.6,7.5,7.9,6.8,7.9,5.1,73,74,71,0.158,-0.2,0.9,-1.6,3.508,4.2,239,5.8,5.3,-0.00001,-0.00001,34.0,37.3,37,0,0,0.0,.,0.00,0.00
15min,AgWx,bigpiney,439,13NOV2018:01:45:00,6.9,12.58,5.7,5.9,5.5,8.4,4.1,75,79,70,0.157,-0.8,1.1,-1.8,4.384,3.3,253,9.6,4.5,-0.00003,-0.00003,34.0,37.2,37,0,0,0.0,.,0.00,0.00
15min,AgWx,bigpiney,439,13NOV2018:02:00:00,6.8,12.57,5.3,5.7,4.9,5.8,4.1,78,79,75,0.154,-0.6,0.6,-1.7,5.415,4.1,230,16,6.1,-0.00002,-0.00002,34.0,37.3,37,0,0,0.0,.,0.00,0.00
15min,AgWx,bigpiney,439,13NOV2018:02:15:00,6.8,12.57,6.4,5.7,5.9,6.2,4.9,77,78,76,0.153,0.2,0.7,-1.0,0.921,3.5,247,41,5.8,-0.00003,-0.00003,34.0,37.3,37,0,0,0.0,.,0.00,0.00
15min,AgWx,bigpiney,439,13NOV2018:02:30:00,6.8,12.56,6.6,5.5,6.1,6.5,5.5,77,78,77,0.150,0.5,0.9,-0.2,2.258,1.2,230,24,2.7,-0.00008,-0.00010,34.0,37.3,37,0,0,0.0,.,0.00,0.00
15min,AgWx,bigpiney,439,13NOV2018:02:45:00,6.7,12.57,6.1,5.3,5.6,6.7,5.2,77,78,76,0.149,0.1,1.3,-0.4,2.674,3.2,233,11,4.6,-0.00003,-0.00003,34.0,37.2,37,0,0,0.0,.,0.00,0.00
15min,AgWx,bigpiney,439,13NOV2018:03:00:00,6.6,12.56,7.1,8.8,6.2,8.8,5.1,77,78,74,0.168,0.6,2.4,-0.4,0.789,2.7,239,12,4.3,-0.00004,-0.00004,34.0,37.2,37,0,0,0.0,.,0.00,0.00
15min,AgWx,bigpiney,439,13NOV2018:03:15:00,6.7,12.56,10.0,8.3,9.5,10.7,7.9,72,76,68,0.167,2.2,3.4,-0.1,0.044,1.2,263,15,2.6,-0.00008,-0.00010,34.0,37.2,37,0,0,0.0,.,0.00,0.00
15min,AgWx,bigpiney,439,13NOV2018:03:30:00,6.8,12.55,9.5,6.2,9.2,10.3,6.2,73,75,71,0.151,2.4,3.5,-0.1,3.924,1.2,180,58,3.9,-0.00008,-0.00011,34.0,37.3,37,0,0,0.0,.,0.00,0.00
15min,AgWx,bigpiney,439,13NOV2018:03:45:00,6.6,12.55,4.7,4.8,4.4,5.9,4.1,79,82,74,0.154,-0.7,0.5,-1.9,5.437,4.4,206,3.9,5.5,-0.00002,-0.00002,34.0,37.3,37,0,0,0.0,.,0.00,0.00
15min,AgWx,bigpiney,439,13NOV2018:04:00:00,6.3,12.55,5.3,4.7,4.8,5.4,4.4,81,83,80,0.155,0.3,0.9,-0.1,4.779,4.9,211,6.0,6.1,-0.00002,-0.00002,34.0,37.2,37,0,0,0.0,.,0.00,0.00
15min,AgWx,bigpiney,439,13NOV2018:04:15:00,6.0,12.54,5.8,5.2,5.3,5.6,4.7,82,83,81,0.157,0.9,1.1,0.6,3.946,4.5,227,8.2,6.1,-0.00002,-0.00002,34.0,37.2,37,0,0,0.0,.,0.00,0.00
15min,AgWx,bigpiney,439,13NOV2018:04:30:00,6.0,12.54,4.8,4.1,4.5,5.4,3.7,81,82,80,0.151,-0.1,0.9,-1.0,1.337,2.5,252,18,4.1,-0.00004,-0.00005,34.0,37.3,37,0,0,0.0,.,0.00,0.00
15min,AgWx,bigpiney,439,13NOV2018:04:45:00,5.9,12.52,6.9,8.1,5.9,8.1,4.0,81,84,77,0.169,1.3,2.7,-0.3,1.578,0.9,291,26,1.9,-0.00009,-0.00012,34.0,37.2,37,0,0,0.0,.,0.00,0.00
15min,AgWx,bigpiney,439,13NOV2018:05:00:00,5.8,12.53,7.9,5.4,7.7,8.9,5.4,75,77,73,0.149,1.4,2.8,-0.4,3.091,2.1,256,21,3.5,-0.00005,-0.00006,33.9,37.3,37,0,0,0.0,.,0.00,0.00
15min,AgWx,bigpiney,439,13NOV2018:05:15:00,5.6,12.53,6.0,4.4,5.6,7.5,4.4,77,80,74,0.148,0.0,2.2,-1.0,5.086,4.5,228,5.3,5.6,-0.00001,-0.00001,33.9,37.2,37,0,0,0.0,.,0.00,0.00
15min,AgWx,bigpiney,439,13NOV2018:05:30:00,5.5,12.52,5.7,5.2,5.1,5.4,4.4,80,80,80,0.153,0.3,0.7,-0.5,4.209,4.5,227,2.9,5.2,-0.00002,-0.00002,33.9,37.2,37,0,0,0.0,.,0.00,0.00
15min,AgWx,bigpiney,439,13NOV2018:05:45:00,5.6,12.52,5.7,4.8,5.3,5.6,4.7,79,80,79,0.151,0.2,0.5,-0.3,3.99,3.9,231,3.3,4.5,-0.00002,-0.00002,33.9,37.2,37,0,0,0.0,.,0.00,0.00
15min,AgWx,bigpiney,439,13NOV2018:06:00:00,5.6,12.52,5.6,6.1,5.0,6.1,4.7,79,80,78,0.158,0.0,1.0,-0.3,4.012,3.8,234,7.9,4.6,-0.00003,-0.00002,33.9,37.2,37,0,0,0.0,.,0.00,0.00
15min,AgWx,bigpiney,439,13NOV2018:06:15:00,5.6,12.51,7.0,3.6,6.6,10.9,3.6,75,80,69,0.141,0.5,5.0,-1.8,4.319,4.5,222,11,6.2,-0.00001,-0.00001,33.9,37.2,37,0,0,0.0,.,0.00,0.00
15min,AgWx,bigpiney,439,13NOV2018:06:30:00,5.5,12.51,4.6,5.1,4.0,5.1,3.5,80,81,79,0.153,-0.7,0.2,-1.5,3.749,4.4,220,9.3,5.0,-0.00002,-0.00002,33.9,37.2,37,0,0,0.0,.,0.00,0.00
15min,AgWx,bigpiney,439,13NOV2018:06:45:00,5.4,12.52,5.3,4.1,4.8,5.3,4.1,79,79,78,0.144,-0.3,0.2,-1.0,2.302,3.4,233,4.1,4.0,-0.00003,-0.00003,33.9,37.2,37,0,0,0.0,.,0.00,0.00
15min,AgWx,bigpiney,439,13NOV2018:07:00:00,5.3,12.52,4.5,4.3,4.0,4.9,3.2,79,81,78,0.150,-1.0,0.0,-2.0,2.017,2.5,247,17,4.4,-0.00004,-0.00005,33.9,37.2,37,1,0,0.0,.,0.00,0.00
15min,AgWx,bigpiney,439,13NOV2018:07:15:00,5.2,12.83,5.4,4.9,4.7,5.7,3.4,80,82,79,0.152,-0.1,1.5,-1.8,2.017,1.3,252,30,2.9,-0.00006,-0.00008,33.9,37.2,37,7,0,0.0,.,0.00,0.00
15min,AgWx,bigpiney,439,13NOV2018:07:30:00,5.2,15.04,5.5,5.8,4.9,6.0,4.1,80,82,79,0.161,0.2,1.5,-0.9,3.376,2.3,203,26,4.1,-0.00008,-0.00006,33.9,37.3,37,36,0,0.0,.,0.00,0.00
15min,AgWx,bigpiney,439,13NOV2018:07:45:00,5.8,15.06,6.7,7.6,6.0,7.6,4.8,81,82,80,0.174,1.5,2.9,0.0,4.362,4.2,218,13,5.3,0.00000,0.00004,33.8,37.1,37,67,0,0.0,.,0.00,0.00
15min,AgWx,bigpiney,439,13NOV2018:08:00:00,7.3,14.99,9.9,10.5,9.1,10.5,7.5,80,81,79,0.194,4.2,5.3,2.9,2.696,3.9,227,7.7,5.6,0.00007,0.00012,33.8,37.2,37,103,0,0.0,.,0.00,0.00
15min,AgWx,bigpiney,439,13NOV2018:08:15:00,9.6,15,13.6,15.2,12.9,15.2,10.5,77,79,75,0.228,7.1,8.8,5.3,2.543,3.0,239,7.1,4.3,0.00017,0.00022,33.8,37.2,37,139,0,0.0,.,0.00,0.00
15min,AgWx,bigpiney,439,13NOV2018:08:30:00,12.3,14.99,17.1,17.2,16.5,17.7,15.1,75,76,73,0.243,9.8,10.9,8.8,0,1.0,241,40,3.2,0.00025,0.00028,33.8,37.1,37,171,0,0.0,.,0.00,0.00
15min,AgWx,bigpiney,439,13NOV2018:08:45:00,15.4,14.62,18.7,19.3,18.2,19.3,17.1,70,74,67,0.259,10.1,11.7,9.0,1.754,0.5,68,65,2.0,0.00039,0.00043,33.8,37.1,37,213,0,0.0,.,0.00,0.00
15min,AgWx,bigpiney,439,13NOV2018:09:00:00,18.6,14.72,20.9,21.1,20.4,21.4,19.3,70,74,68,0.267,12.3,13.8,10.9,0.855,1.4,193,16,2.5,0.00055,0.00062,33.8,37.2,37,251,0,0.0,.,0.00,0.00